Theta_e
297 297 297 296 296 297 295 295 291 293 293 298 301 302 304 305 305 304 303 303 305 306 307 307 307 309 309 310 311 311 309 309 310 312 315 314 310 307 306 305 305 305 305 304
294 297 298 295 296 296 296 296 295 296 295 303 305 305 304 303 303 302 303 303 304 304 304 305 306 307 307 307 308 310 308 308 310 311 312 308 305 303 303 303 303 303 302 302
289 296 295 290 296 296 296 298 297 293 298 303 302 302 302 303 303 302 303 303 303 304 304 306 305 306 305 306 306 308 308 308 310 311 308 304 302 301 300 300 300 300 300 300
291 293 284 296 300 300 297 298 300 299 302 302 302 303 304 305 302 302 302 303 303 304 304 305 305 304 305 306 306 306 307 307 310 307 302 301 300 299 299 299 299 299 299 299
288 288 291 295 299 299 296 295 302 300 300 301 302 303 301 305 305 303 303 304 304 304 305 305 305 304 304 303 304 305 305 307 305 303 300 299 297 297 298 298 299 300 300 300
291 286 282 294 301 304 302 291 303 302 300 300 302 295 296 304 305 303 305 304 303 304 304 304 306 306 304 303 304 304 306 303 302 301 298 297 297 297 298 299 300 301 301 303
291 289 292 300 302 303 290 292 302 302 301 300 298 300 304 306 304 304 303 303 303 302 300 303 304 304 302 303 302 305 303 301 300 299 298 298 298 299 299 300 303 304 303 304
294 289 286 303 301 294 300 304 304 303 303 301 303 302 302 302 302 301 301 301 300 299 300 302 304 303 302 301 304 302 300 299 298 298 299 299 299 301 301 304 303 303 302 302
296 295 305 306 304 307 308 303 304 303 304 303 302 302 302 300 299 300 300 299 299 298 297 300 302 301 299 301 302 300 298 297 297 298 298 300 302 303 305 306 303 302 301 300
297 300 301 303 305 306 306 305 306 305 303 302 301 300 299 300 299 299 298 297 296 295 295 297 299 300 302 301 300 298 297 297 297 297 298 300 303 300 299 302 302 301 301 300
297 300 302 303 304 305 305 306 305 303 303 302 300 299 298 297 297 298 296 295 296 295 295 297 300 302 301 300 299 297 297 297 298 300 300 298 295 297 297 295 298 300 301 301
296 302 301 302 305 306 305 302 300 300 300 300 300 297 297 296 298 296 294 295 295 296 297 298 301 300 300 300 299 298 297 297 302 302 301 300 298 297 292 293 292 292 292 297
302 306 305 306 307 305 301 300 300 299 300 297 296 296 296 295 294 294 295 296 297 297 298 300 301 299 299 300 300 298 298 301 302 301 301 301 301 300 298 298 294 292 292 292
307 306 303 305 302 302 301 301 301 299 298 296 295 296 294 292 293 294 298 300 302 299 300 301 299 298 299 300 299 301 301 299 304 304 304 303 302 302 301 300 298 300 295 295
305 308 306 303 303 302 301 299 296 295 294 294 293 292 292 292 293 298 301 302 301 301 299 299 298 297 299 301 302 302 304 304 306 306 305 304 303 303 302 301 300 300 300 298
305 304 303 302 300 299 297 295 293 293 293 292 292 292 293 296 298 299 301 302 299 297 298 298 298 299 301 303 304 305 305 299 302 306 304 305 305 304 302 300 299 298 298 299
300 300 299 298 297 296 294 294 294 294 292 292 293 294 296 297 297 298 298 300 299 298 299 299 298 301 302 304 305 307 306 305 301 306 305 303 302 299 299 298 297 297 298 295
303 301 301 299 296 294 294 295 295 293 292 294 295 296 295 295 295 296 297 298 298 298 298 299 300 301 303 306 310 309 307 307 306 303 303 302 301 299 299 298 298 298 298 297
302 300 299 297 296 295 294 295 293 294 296 296 295 294 295 296 296 296 297 296 296 295 296 299 297 302 306 308 307 307 307 305 303 302 302 298 300 300 300 300 299 299 299 298
301 300 297 296 296 296 295 294 294 295 296 296 296 295 294 295 296 296 296 295 296 296 298 299 302 305 307 308 300 307 305 303 303 303 302 301 300 300 300 296 299 299 299 299
299 296 295 294 295 296 295 296 295 295 296 296 295 294 294 295 295 295 294 293 296 298 300 298 304 306 308 304 305 305 304 304 303 302 300 300 301 300 300 300 299 299 299 299
297 295 294 294 295 295 295 296 296 296 295 295 295 295 294 293 294 294 296 297 297 292 301 304 305 299 303 297 306 305 305 303 303 303 302 301 301 301 300 300 299 299 300 299
295 295 296 296 295 294 295 296 296 296 295 294 294 295 294 294 295 294 294 298 300 297 303 306 292 290 291 308 306 305 304 304 303 303 303 302 301 301 301 300 300 300 300 300
296 295 296 297 296 295 293 295 296 296 295 296 296 296 296 295 294 299 300 294 291 295 304 301 295 288 292 307 306 304 303 303 303 303 302 296 302 302 301 299 299 299 300 299
296 296 296 296 294 293 295 296 296 296 296 296 296 296 296 297 296 297 300 301 292 297 304 290 290 290 306 306 306 304 303 303 303 302 303 303 301 301 302 301 301 301 300 300
296 295 296 297 295 295 296 296 294 295 296 296 295 295 295 295 296 300 302 299 304 298 304 304 306 306 307 306 304 303 303 302 303 302 301 302 302 301 301 301 301 301 300 300
296 293 297 296 296 296 297 296 295 294 295 296 295 295 294 295 299 300 297 302 303 305 306 306 306 304 306 305 304 303 303 303 299 303 303 302 302 302 302 302 302 302 301 301
Wind_Speed
16 19 20 22 21 19 18 16 15 17 18 8 9 6 9 9 13 17 17 16 11 11 14 14 12 13 14 14 14 12 13 13 13 11 11 9 8 9 6 5 6 7 7 8
19 19 20 18 19 22 21 19 16 13 14 15 13 6 10 14 16 18 16 18 17 16 16 14 13 13 13 13 14 12 11 12 13 12 10 8 9 7 6 7 7 8 8 9
8 13 18 13 6 11 12 13 11 11 14 16 14 15 15 15 15 15 17 16 18 16 14 12 11 11 12 13 13 11 12 11 13 11 8 10 8 7 7 6 7 8 8 9
9 13 5 8 23 13 6 8 11 14 12 12 12 14 16 18 13 14 18 16 15 13 12 10 9 10 13 13 13 10 10 11 11 10 9 9 9 8 7 6 6 6 7 7
3 5 16 13 9 9 10 11 13 16 18 17 16 18 18 10 14 16 17 14 10 11 12 8 6 8 10 9 10 9 8 9 9 8 9 9 9 7 6 5 5 6 5 7
6 6 6 13 14 6 7 10 9 14 17 19 19 12 11 16 17 15 16 12 12 14 13 13 6 7 10 8 9 8 7 8 7 8 9 9 8 6 3 3 4 4 4 6
10 9 8 5 11 13 9 8 15 16 17 17 15 10 16 18 17 18 16 16 14 14 14 12 10 6 6 7 7 6 8 9 8 9 9 7 5 2 2 3 4 5 7 6
8 8 8 3 12 8 9 12 15 16 14 14 15 14 16 15 18 16 17 13 12 12 10 9 7 4 5 6 4 7 9 10 9 7 6 4 4 4 2 3 6 7 9 8
5 7 15 16 9 6 12 11 12 10 13 14 18 18 18 18 17 15 14 12 10 9 11 11 5 5 3 5 9 10 10 10 8 6 5 2 2 1 2 3 6 7 6 5
11 12 14 14 16 16 11 13 17 14 13 12 16 19 18 16 16 12 12 10 10 10 9 8 6 5 4 10 10 11 11 9 6 6 3 4 3 6 6 7 7 8 7 6
15 15 15 16 12 12 12 11 12 12 11 15 15 18 15 14 13 12 10 11 8 7 5 6 5 1 11 11 12 11 10 8 5 1 5 9 9 7 8 8 9 7 7 7
11 14 12 16 15 15 13 9 8 11 15 17 16 15 13 12 12 11 12 10 7 6 4 4 2 11 11 11 13 12 10 5 5 6 9 9 9 9 13 12 14 13 12 8
14 15 16 16 12 11 8 8 10 14 16 16 12 10 11 13 12 15 13 10 7 6 4 1 11 12 11 12 13 13 8 7 5 7 8 8 8 9 9 9 11 11 10 9
6 9 14 15 10 7 8 11 14 16 12 11 12 12 12 10 13 13 11 9 5 9 6 11 13 12 11 12 14 11 9 7 9 8 7 8 8 8 8 8 7 6 8 7
10 8 8 9 10 10 15 16 15 12 12 11 9 9 9 10 10 7 6 11 12 11 14 13 13 11 11 10 11 10 7 5 8 7 7 6 8 9 9 9 8 7 6 4
10 12 10 13 16 15 16 15 13 12 9 8 8 7 8 7 3 5 6 10 14 13 13 13 11 10 8 10 8 3 5 12 7 6 7 6 6 8 10 10 10 10 9 8
10 13 13 13 12 14 11 10 10 9 9 11 8 5 2 5 6 7 10 12 13 13 12 11 10 8 8 9 8 7 8 8 7 7 8 10 9 10 10 9 9 7 7 6
8 8 7 11 11 9 10 11 8 8 8 8 5 5 5 6 7 10 12 13 13 12 10 9 8 8 8 8 6 7 7 6 9 10 9 8 9 9 8 8 9 8 8 7
10 7 11 9 6 8 8 8 6 8 7 5 6 7 8 8 9 10 11 12 12 12 6 6 7 9 8 6 2 7 9 10 11 9 7 7 9 9 9 9 9 10 10 10
9 10 7 7 6 6 7 5 6 5 4 5 6 7 8 8 9 9 9 9 7 7 8 8 9 5 3 5 8 9 11 10 9 8 8 10 11 10 9 10 10 10 10 9
9 7 6 5 6 5 4 4 4 4 5 6 6 8 8 8 8 9 11 8 5 5 6 6 7 5 6 4 6 10 9 10 9 9 9 8 9 9 9 9 9 9 9 10
6 4 5 5 4 5 4 4 4 4 6 7 8 8 9 9 10 9 6 10 4 2 6 7 6 5 5 9 8 10 10 10 8 7 8 9 9 8 9 9 9 9 10 10
3 4 5 5 5 5 4 3 3 5 6 6 7 7 6 5 5 10 9 2 4 4 6 5 3 6 6 9 8 9 9 9 9 8 8 9 8 8 8 8 9 9 9 9
3 3 4 3 4 4 4 3 5 6 7 8 8 8 7 7 6 3 7 3 3 4 6 5 5 5 6 7 8 9 9 8 8 8 9 11 8 9 9 9 9 8 8 9
2 2 4 3 4 3 3 4 5 6 8 8 9 7 7 4 7 5 5 4 4 4 8 3 6 7 8 8 8 9 9 8 8 8 8 9 9 8 8 9 9 9 9 9
3 2 2 3 3 2 2 3 4 3 4 6 7 6 6 5 1 5 4 7 9 10 9 6 6 5 8 9 10 11 10 8 7 9 10 8 10 9 8 9 9 9 9 9
3 2 1 4 2 2 3 4 4 4 3 4 8 7 7 3 6 7 8 10 9 9 8 7 7 8 9 10 11 9 7 7 7 8 9 9 8 8 9 9 8 7 8 8
Wind_Direction
295 302 297 288 283 280 279 282 286 291 289 37 2 336 0 348 350 347 339 324 360 355 330 326 348 344 348 347 334 327 331 324 316 312 322 73 62 54 38 24 24 32 44 42
293 286 280 314 312 294 278 270 280 313 320 351 32 358 339 355 341 334 340 343 333 332 333 323 331 333 343 329 323 332 321 311 303 307 68 70 65 64 52 41 40 47 50 53
282 323 328 296 331 337 323 316 326 319 338 11 4 356 341 336 343 348 330 332 327 328 326 327 343 344 333 320 318 324 309 315 307 340 80 73 76 67 55 46 50 49 49 54
292 310 255 292 325 299 296 308 347 327 11 357 336 328 326 313 9 343 332 325 329 323 319 316 327 328 316 321 313 321 310 317 339 94 89 91 81 68 54 47 46 51 49 47
271 275 279 287 0 339 339 325 14 15 350 335 329 322 314 2 350 337 330 328 323 318 310 301 270 286 294 304 305 315 327 22 54 74 89 85 80 69 56 58 51 49 51 53
251 276 272 310 1 32 319 287 9 338 329 324 328 313 310 337 328 316 332 325 313 305 304 303 292 261 278 298 306 312 28 60 65 82 87 84 77 64 44 81 80 71 61 75
238 254 258 329 12 334 283 336 334 326 340 331 318 303 306 327 326 331 317 315 319 319 316 304 304 300 300 286 311 29 86 92 88 83 84 84 81 70 27 60 65 81 78 85
224 240 280 50 357 343 326 306 316 319 317 304 316 332 320 320 326 314 317 326 332 324 315 334 335 322 352 344 44 99 92 92 89 86 85 81 100 110 101 58 83 77 64 49
265 270 321 318 335 279 305 313 319 323 314 323 320 316 326 321 304 320 323 328 327 338 328 327 35 9 314 289 115 98 94 94 91 89 76 75 110 121 158 122 78 71 73 66
268 277 297 303 295 307 351 314 307 316 337 319 321 321 314 316 317 319 324 327 326 313 311 318 318 290 268 112 105 103 106 105 96 78 23 343 351 49 41 57 61 70 67 62
293 300 299 298 315 331 323 317 322 353 316 314 317 312 315 314 312 319 323 313 309 304 302 295 294 347 108 109 113 107 106 107 108 124 102 74 51 38 65 42 45 51 46 44
282 298 307 303 301 282 321 2 353 332 318 316 315 318 319 313 312 322 303 303 287 283 281 294 341 106 106 113 113 115 130 141 153 115 98 94 87 74 46 63 53 49 51 45
290 285 293 297 325 23 20 350 333 317 314 322 327 326 322 315 311 302 292 279 264 210 205 217 108 102 108 112 121 143 152 157 148 113 110 108 104 90 81 53 53 37 17 35
320 310 306 320 345 29 2 336 324 331 336 345 327 321 313 300 298 292 282 254 163 151 144 113 109 111 116 137 165 154 168 213 128 133 126 126 124 114 101 92 84 70 38 35
311 311 302 23 348 349 342 336 334 333 330 315 315 302 296 295 296 323 336 103 128 120 113 111 112 119 156 157 150 173 201 171 130 135 131 139 122 125 130 132 133 130 119 64
319 334 333 338 343 340 335 336 333 327 332 319 303 300 300 287 25 12 65 104 110 112 112 112 124 150 142 154 170 210 84 98 123 140 146 140 107 79 67 64 57 46 45 55
342 338 346 330 332 329 334 329 324 333 330 320 327 310 335 66 56 67 79 90 100 106 112 123 131 133 157 177 202 128 121 159 183 121 81 73 76 77 77 77 76 72 59 37
354 22 347 340 328 335 327 323 346 342 323 320 337 66 68 70 76 83 90 97 97 98 106 121 131 145 167 211 142 150 162 151 92 86 93 99 98 102 106 108 105 97 84 61
45 4 354 341 350 323 320 341 354 321 331 4 69 73 72 79 89 97 103 103 105 110 106 127 142 169 193 240 274 135 95 93 86 91 107 121 99 89 82 80 79 78 74 69
13 6 359 357 332 322 335 3 319 327 26 66 77 86 77 83 94 95 94 91 101 123 144 165 168 172 221 274 282 109 96 120 127 107 90 83 79 78 79 75 81 78 76 74
6 9 358 345 333 4 12 347 344 16 71 93 96 96 99 97 99 108 105 102 103 139 126 135 177 197 227 172 133 124 121 95 96 91 98 107 99 89 84 83 82 82 81 79
23 359 339 319 352 36 31 7 14 68 89 94 89 94 103 94 90 77 78 122 127 136 150 167 207 245 89 127 118 103 98 101 111 106 95 94 94 94 90 86 81 80 76 74
33 354 359 28 30 66 40 38 40 91 99 102 105 106 103 98 112 124 122 143 144 159 178 194 18 31 357 110 108 109 110 105 101 100 97 96 96 93 90 86 82 78 78 77
24 13 2 26 76 70 65 46 77 95 104 107 104 107 119 117 83 86 110 95 314 236 164 73 44 15 156 123 117 108 104 107 106 96 89 85 99 91 81 88 98 103 98 94
31 42 8 69 87 79 74 84 93 96 105 101 100 90 92 81 123 149 140 165 228 185 120 54 14 354 131 120 113 119 113 106 106 107 112 98 100 109 94 85 82 80 79 77
82 43 19 67 106 103 95 90 97 82 96 113 104 105 105 94 284 129 152 146 135 134 139 147 158 169 123 126 116 97 93 108 126 110 109 108 91 95 106 100 90 85 85 84
100 14 41 108 102 81 100 106 117 112 96 103 119 121 126 175 159 144 155 139 155 146 163 151 146 134 119 99 94 120 139 106 108 111 100 103 114 100 94 97 105 107 97 90